{"data":{"norad_id":62150,"intl_designator":"2024-224M","name":"STARLINK-32629","alt_names":[],"object_type":"PAYLOAD","status":"ACTIVE","operator":null,"country":"US","launch_date":"2024-11-30","launch_site_code":"AFETR","launch_vehicle":null,"mission":null,"orbit_class":"UNKNOWN","rcs_meters":null,"size_class":null,"mass_kg":null,"dimensions":null,"purposes":["comms"],"wikipedia_slug":null,"has_3d_model":false,"image_url":null,"decayed_at":null,"tle_current":{"epoch":"2026-09-20T22:15:22.887072Z","epoch_age_seconds":145178,"freshness":"FRESH","line1":"1 62150U 24224M   26263.92734823  .00009336  00000+0  34811-3 0  9995","line2":"2 62150  43.0007 135.1071 0001278 264.1144  95.9562 15.27602593102344","mean_motion":15.27602593,"eccentricity":0.0001278,"inclination_deg":43.0007,"raan_deg":135.1071,"arg_perigee_deg":264.1144,"mean_anomaly_deg":95.9562,"bstar":0.00034811,"rev_number":10234,"period_min":94.265354523393,"perigee_km":482.10459436635,"apogee_km":483.85829624097,"semimajor_km":6861.1184453037,"source":"CELESTRAK","updated_at":"2026-09-22T09:00:49.531345Z"}}}